[Date Prev][Date Next][Thread Prev][Thread Next] - [Date Index][Thread Index][Author Index]
2 Line ISS Keps 10-21
- Subject: [sarex] 2 Line ISS Keps 10-21
- From: "Dave Larsen PhD" <doc@xxxxxxxxxxx>
- Date: Fri, 21 Oct 2005 06:09:49 -0700
ISS
1 25544U 98067A 05294.45924918 .00018378 00000-0 12936-3 0 5955
2 25544 051.6436 333.9357 0001014 093.2070 049.1741 15.74177242395550
----
Via the sarex mailing list at AMSAT.ORG courtesy of AMSAT-NA.
To unsubscribe, send "unsubscribe sarex" to Majordomo@amsat.org
AMSAT Home